Current weather by "City, St" or "zip code"  
 
Advertise Here

Current Conditions: Troy, Troy Municipal Airport, AL

Overcast


75.0 F

Last Updated on May 12 2021, 12:53 pm CDT
Humidity: 69%
Wind Speed: N 6.9 mph
Barometer 30.08 in
Dewpoint: 64.0 F
Visibility: 10.00 mi
Precip: --
Heat Index: NA
Wind Chill: NA
Current conditions at:

Troy, Troy Municipal Airport, AL (KTOI)

Lat: 31.86056 Lon: 86.01222

Local Radar Image active severe weather and emergency alerts image image weather storm and storm spotter reports image weather observation monitoring service image
Local
Radar
Active
Alerts
Storm Reports Obs
Monitoring

Sign-up For Email & Text Message Weather Alert Notification Services


Advertise Here

Observation History for Troy, Troy Municipal Airport, AL


Time Wind
(mph)
Vis
(mi)
Weather Precip (in) Temperature (F) Relative
Humidity
Wind
Chill
(F)
Heat
Index
(F)
Pressure
Air Dwpt altimeter
(in)
sea level
(mb)
Rmks
12:53 pm CDT N 6.9 10.00 Overcast -- 75.0 64.0 69% NA NA 30.08 1018.2
11:53 am CDT N 9.2 10.00 Overcast -- 76.0 64.0 67% NA NA 30.08 1018.1
10:53 am CDT SE 3.5 10.00 Overcast Trace 71.0 64.0 79% NA NA 30.10 1018.8
9:53 am CDT N 0.0 10.00 Overcast 00.01 69.0 63.0 81% NA NA 30.10 1019.0
8:53 am CDT E 4.6 10.00 Light Rain 00.05 68.0 63.0 84% NA NA 30.07 1018.0
7:53 am CDT N 0.0 5.00 Rain Fog/Mist 00.18 67.0 63.0 87% NA NA 30.08 1018.2
6:53 am CDT N 0.0 5.00 Rain Fog/Mist 00.08 67.0 63.0 87% NA NA 30.08 1018.1
5:53 am CDT N 0.0 7.00 Overcast Trace 68.0 64.0 87% NA NA 30.06 1017.4
4:53 am CDT N 0.0 9.00 Light Rain 00.01 68.0 64.0 87% NA NA 30.04 1016.9
3:53 am CDT N 0.0 10.00 Overcast 00.01 69.0 64.9 87% NA NA 30.04 1016.6
2:53 am CDT N 0.0 10.00 Light Rain 00.01 68.0 64.0 87% NA NA 30.03 1016.5
1:53 am CDT N 0.0 10.00 Mostly Cloudy 00.02 68.0 64.0 87% NA NA 30.04 1016.8
12:53 am CDT SW 4.6 9.00 Overcast -- 68.0 64.0 87% NA NA 30.06 1017.5
11:53 pm CDT N 0.0 6.00 Fog/Mist -- 67.0 64.0 91% NA NA 30.06 1017.6
10:53 pm CDT N 0.0 10.00 Fair -- 69.0 64.9 87% NA NA 30.07 1017.9
9:53 pm CDT S 3.5 4.00 Fog/Mist -- 68.0 64.0 87% NA NA 30.08 1017.9
8:53 pm CDT N 0.0 7.00 Fair -- 69.0 64.9 87% NA NA 30.06 1017.6
7:53 pm CDT N 0.0 10.00 Fair -- 71.0 66.0 84% NA NA 30.04 1016.9
6:53 pm CDT S 4.6 10.00 Fair Trace 73.0 68.0 84% NA NA 30.02 1016.3
5:53 pm CDT W 3.5 10.00 Light Rain -- 75.0 69.1 82% NA NA 30.02 1016.2
4:53 pm CDT SW 8.1 10.00 Light Rain 00.05 75.0 69.1 82% NA NA 30.02 1016.1
3:53 pm CDT W 9.2 10.00 Light Rain Trace 78.0 69.1 74% NA NA 30.05 1017.0
2:53 pm CDT W 5.8 10.00 A Few Clouds -- 83.0 66.9 59% NA 86 30.05 1017.0
1:53 pm CDT W 4.6 10.00 Fair -- 83.0 66.0 57% NA 85 30.07 1017.6

Regional Weather Observation


Montgomery, Dannelly Field, AL (KMGM)

Light Rain
69.0 F

Maxwell Air Force Base / Montgomery, AL (KMXF)

Overcast
65.0 F

Mac Crenshaw Memorial Airport, AL (KPRN)

Overcast
68.0 F

Prattville - Grouby Field, AL (K1A9)

Overcast
66.0 F

Craig Field / Selma, AL (KSEM)

Overcast
66.0 F

Andalusia, Andalusia-Opp Municipal Airport, AL (K79J)

Mostly Cloudy
81.0 F
Advertise Here

Advertise Here